Location: Lafig�re
(44.4503°N, 4.0357°E)
Time: 16:44:30
(UTC+00:00)

Cosmos 2026 Rocket - Pass Details

Date: 24 September 2020
Orbit: 940 x 1000 km, 82.9° (Epoch: 25 October)

Event Time Altitude Azimuth Distance (km) Brightness Sun altitude
Rises 18:49:25 0° 357° (N) 3,727 7.3 -13.7°
Reaches altitude 10° 18:52:09 10° 5° (N) 2,777 6.5 -14.2°
Maximum altitude 18:58:06 40° 74° (ENE) 1,449 4.5 -15.2°
Enters shadow 19:02:15 19° 133° (SE) 2,200 5.3 -15.9°
